Location: Dompnac
(44.5644°N, 4.1026°E)
Time: 19:59:39
(UTC+00:00)

Cosmos 1125 Rocket - Pass Details

Date: 19 September 2020
Orbit: 758 x 780 km, 74.0° (Epoch: 27 October)

Event Time Altitude Azimuth Distance (km) Brightness Sun altitude
Rises 20:00:29 0° 204° (SSW) 3,243 6.7 -23.8°
Reaches altitude 10° 20:02:51 10° 206° (SSW) 2,322 6.0 -24.2°
Maximum altitude 20:08:08 76° 292° (WNW) 808 3.6 -25.0°
Drops below altitude 10° 20:13:28 10° 18° (NNE) 2,342 6.1 -25.9°
Sets 20:15:52 0° 20° (NNE) 3,274 6.9 -26.2°
